H1 CPF 2 COD 2024 7 6 1 188 1 galileo215 NONE
H2 1707901 7215 43055 2024 7 5 23 59 42 2024 7 10 23 59 42 900 1 1 0 0 0 1
H5 0.5555
H9
10 0 60501  26982.000000  0     280991.208 -17474720.453  23894010.602
10 0 60501  27882.000000  0    2347093.633 -16796070.054  24263950.403
10 0 60501  28782.000000  0    4474168.182 -16256256.473  24332238.074
10 0 60501  29682.000000  0    6625986.103 -15865303.806  24098017.768
10 0 60501  30582.000000  0    8765195.174 -15627186.543  23564191.891
10 0 60501  31482.000000  0   10854425.433 -15539722.261  22737385.610
10 0 60501  32382.000000  0   12857396.488 -15594659.851  21627865.340
10 0 60501  33282.000000  0   14739991.920 -15777960.514  20249412.128
10 0 60501  34182.000000  0   16471267.316 -16070262.774  18619151.463
10 0 60501  35082.000000  0   18024360.508 -16447516.944  16757341.504
10 0 60501  35982.000000  0   19377275.610 -16881769.217  14687122.287
10 0 60501  36882.000000  0   20513516.386 -17342070.826  12434228.927
10 0 60501  37782.000000  0   21422549.140 -17795483.770  10026672.314
10 0 60501  38682.000000  0   22100080.663 -18208151.577   7494391.213
10 0 60501  39582.000000  0   22548142.534 -18546401.462   4868880.067
10 0 60501  40482.000000  0   22774979.163 -18777843.243   2182797.135
10 0 60501  41382.000000  0   22794743.089 -18872430.465   -530442.151
10 0 60501  42282.000000  0   22627007.139 -18803450.294  -3237081.487
10 0 60501  43182.000000  0   22296108.793 -18548411.024  -5903444.424
10 0 60501  44082.000000  0   21830347.392 -18089799.193  -8496354.198
10 0 60501  44982.000000  0   21261059.447 -17415682.436 -10983547.373
10 0 60501  45882.000000  0   20621601.168 -16520139.026 -13334076.056
10 0 60501  46782.000000  0   19946270.213 -15403500.510 -15518693.624
10 0 60501  47682.000000  0   19269200.578 -14072399.746 -17510219.104
10 0 60501  48582.000000  0   18623265.387 -12539622.713 -19283875.662
10 0 60501  49482.000000  0   18039022.052 -10823768.682 -20817598.951
10 0 60501  50382.000000  0   17543732.940  -8948729.312 -22092311.528
10 0 60501  51282.000000  0   17160492.276  -6943002.903 -23092159.935
10 0 60501  52182.000000  0   16907486.687  -4838865.217 -23804711.547
10 0 60501  53082.000000  0   16797412.535  -2671422.730 -24221108.789
10 0 60501  53982.000000  0   16837068.322   -477577.859 -24336178.862
10 0 60501  54882.000000  0   17027134.889   1705061.565 -24148497.641
10 0 60501  55782.000000  0   17362150.304   3839294.565 -23660407.015
10 0 60501  56682.000000  0   17830680.195   5889426.356 -22877985.446
10 0 60501  57582.000000  0   18415678.183   7822320.489 -21810972.145
10 0 60501  58482.000000  0   19095025.112   9608370.999 -20472645.782
10 0 60501  59382.000000  0   19842230.173  11222364.287 -18879659.227
10 0 60501  60282.000000  0   20627271.948  12644203.875 -17051832.355
10 0 60501  61182.000000  0   21417553.007  13859475.476 -15011905.447
10 0 60501  62082.000000  0   22178938.120  14859834.811 -12785256.236
10 0 60501  62982.000000  0   22876843.524  15643206.143 -10399584.098
10 0 60501  63882.000000  0   23477343.059  16213785.423  -7884565.299
10 0 60501  64782.000000  0   23948256.448  16581848.083  -5271483.591
10 0 60501  65682.000000  0   24260185.566  16763367.603  -2592840.782
10 0 60501  66582.000000  0   24387466.127  16779456.941    118047.860
10 0 60501  67482.000000  0   24309004.917  16655650.472   2827468.282
10 0 60501  68382.000000  0   24008976.260  16421049.061   5501727.199
10 0 60501  69282.000000  0   23477355.835  16107355.213   8107571.264
10 0 60501  70182.000000  0   22710275.075  15747828.657  10612600.596
10 0 60501  71082.000000  0   21710185.013  15376195.228  12985671.499
10 0 60501  71982.000000  0   20485824.404  15025543.332  15197283.349
10 0 60501  72882.000000  0   19051993.098  14727242.658  17219944.852
10 0 60501  73782.000000  0   17429137.740  14509919.090  19028515.144
10 0 60501  74682.000000  0   15642762.708  14398517.954  20600515.540
10 0 60501  75582.000000  0   13722684.695  14413484.996  21916408.133
10 0 60501  76482.000000  0   11702154.160  14570090.729  22959837.834
10 0 60501  77382.000000  0    9616871.058  14877919.340  23717834.943
10 0 60501  78282.000000  0    7503925.496  15340538.168  24180975.802
10 0 60501  79182.000000  0    5400696.323  15955358.126  24343499.584
10 0 60501  80082.000000  0    3343741.919  16713689.483  24203379.835
10 0 60501  80982.000000  0    1367717.737  17600991.320  23762349.883
10 0 60501  81882.000000  0    -495645.754  18597306.933  23025881.793
10 0 60501  82782.000000  0   -2218472.888  19677871.653  22003119.118
10 0 60501  83682.000000  0   -3777551.457  20813874.161  20706764.198
10 0 60501  84582.000000  0   -5154995.024  21973347.564  19152921.356
10 0 60501  85482.000000  0   -6338738.266  23122162.449  17360897.836
10 0 60501  86382.000000  0   -7322849.923  24225090.870  15352964.864
99